Regional Weather Roundup
Issued by NWS

Home | Current Version | Previous Version | Text Only | Print | Product List | Glossary Off
Versions: 1 2 3 4 5 6 7 8 9 10 11 12 13 14 15 16 17 18 19 20 21 22 23 24 25 26 27 28 29 30 31 32 33 34 35 36 37 38 39 40 41 42 43 44 45 46 47 48 49 50

000
ASUS45 KBOU 120910
RWRCO

WEATHER ROUNDUP FOR COLORADO
NATIONAL WEATHER SERVICE DENVER/BOULDER CO
300 AM MDT SAT JUL 12 2014

NOTE: "FAIR" INDICATES FEW OR NO CLOUDS BELOW 12000 FEET WITH NO
SIGNIFICANT WEATHER AND/OR OBSTRUCTIONS TO VISIBILITY.

COZ001>005-013-030-031-121000-
...NORTHWEST COLORADO...

CITY           SKY/WX    TMP DP  RH WIND       PRES   REMARKS
CRAIG          RAIN      56  56 100 E6        30.31R FOG
HAYDEN         CLOUDY    59  54  82 W8        30.33R
MEEKER         MOCLDY    63  54  72 SE3       30.28S
MOUNT WERNER   NOT AVBL
STEAMBOAT SPGS MOCLDY    56  54  92 E3        30.32F
WALDEN         MOCLDY    52  50  93 S3        30.41F
$$

COZ006>008-011-121000-
...WEST CENTRAL VALLEYS...

CITY           SKY/WX    TMP DP  RH WIND       PRES   REMARKS
GRAND JUNCTION PTCLDY    75  51  43 E12       30.13R
MONTROSE       MOCLDY    70  53  54 E7        30.24R
EAGLE          MOCLDY    61  59  94 W3        30.33F
RIFLE          MOCLDY    64  57  78 SW5       30.21F
DELTA          MOCLDY    71  58  64 N5        30.19S
NUCLA          MOCLDY    73  46  38 CALM      30.27S
$$

COZ017>023-064>068-121000-
...SOUTHWEST COLORADO...

CITY           SKY/WX    TMP DP  RH WIND       PRES   REMARKS
DURANGO        CLOUDY    59  57  93 SE3       30.32F
CORTEZ         PTCLDY    66  55  67 NW3       30.26F
PAGOSA SPRINGS CLOUDY    56  55  97 CALM      30.40F
TELLURIDE      CLOUDY    59  48  67 E3        30.48F
WOLF CREEK PAS NOT AVBL
$$

COZ009-010-012-014-032>034-037-058>063-121000-
...CENTRAL COLORADO...

CITY           SKY/WX    TMP DP  RH WIND       PRES   REMARKS
ASPEN          MOCLDY    60  51  72 SE14G20   30.37F
BUENA VISTA    MOCLDY    56  48  75 NW6       30.40S
COPPER MTN     DRIZZLE   46  43  87 W20G29    30.69S
BERTHOUD PASS  LGT RAIN  41  28  60 N9G18     30.72F VSB<1/4
COTTONWOOD PAS MOCLDY    61  43  51 CALM      30.53S
GUNNISON       MOCLDY    55  52  88 CALM      30.42F
KREMMLING      MOCLDY    55  52  88 CALM      30.40F
LEADVILLE      CLOUDY    48  45  89 N5        30.53F
MONARCH PASS   MOCLDY    46  41  81 W18       30.77F
SALIDA         CLOUDY   N/A N/A N/A NW10      30.44S
SUNLIGHT       MOCLDY    50  48  93 CALM      30.59S
WILKERSON PASS PTCLDY    48  41  76 S5        30.64F
$$

COZ069>075-121000-
...SAN LUIS VALLEY/SANGRE DE CRISTO MOUNTAINS...

CITY           SKY/WX    TMP DP  RH WIND       PRES   REMARKS
ALAMOSA        PTCLDY    52  48  86 CALM      30.35F
LA VETA PASS   CLEAR     50  41  71 SW6       30.52F
SAGUACHE       NOT AVBL
$$

COZ035-036-038>040-121000-
...NORTHERN COLORADO FRONT RANGE...

CITY           SKY/WX    TMP DP  RH WIND       PRES   REMARKS
DENVER INTL AP PTCLDY    63  61  93 W8        30.23F
DMNS CITY PARK   N/A     65  60  85 N1        30.23F
AURORA         MOCLDY    62  62 100 NW5       30.25F
FRONT RANGE AP NOT AVBL
ERIE MUNI ARPT MOCLDY    66  62  87 CALM      30.21F
BOULDER MUN AP PTCLDY    64  63  94 CALM      30.22F
CENTENNIAL     PTCLDY    63  59  87 NW5       30.26F
BROOMFIELD     PTCLDY    64  59  82 CALM      30.26S
FORT COLLINS   MOCLDY    63  61  94 CALM      30.23R
LONGMONT       MOCLDY    67  62  83 CALM      30.23S
$$

COZ041-046-047-076>085-087-088-121000-
...PIKES PEAK/PALMER DIVIDE AND SOUTHERN FOOTHILLS...

CITY           SKY/WX    TMP DP  RH WIND       PRES   REMARKS
COLO. SPRINGS  PTCLDY    63  56  78 N7        30.26S
A. F. ACADEMY  PTCLDY    60  59  97 N10       30.27F
ELLICOTT       PTCLDY    61  59  93 NE6       30.23F
FALCON         PTCLDY    60  55  82 N6        30.30S
FORT CARSON    PTCLDY    63  56  78 N8        30.23S
LIMON          PTCLDY    64  61  90 NW10      30.20S
MONUMENT HILL  CLOUDY    57  55  94 NW12      30.31S FOG
TRINIDAD       CLEAR     63  53  70 W8        30.20F
$$

COZ042>045-048>051-090-091-121000-
...NORTHEAST COLORADO...

CITY           SKY/WX    TMP DP  RH WIND       PRES   REMARKS
GREELEY ARPT   NOT AVBL
AKRON          CLOUDY    65  64  97 NW12      30.17S FOG
BURLINGTON     MOCLDY    64  60  87 NW8       30.10R
WRAY           CLOUDY    69  65  89 NW5       30.10F
STERLING       CLOUDY    68  66  94 CALM      30.11F
HOLYOKE        CLOUDY    68  64  88 N10       30.10S
FORT MORGAN    CLOUDY    65  62  91 N3        30.16F
$$

COZ086-089-092>099-121000-
...SOUTHEAST COLORADO...

CITY           SKY/WX    TMP DP  RH WIND       PRES   REMARKS
PUEBLO         PTCLDY    68  63  84 CALM      30.14F
LA JUNTA       CLEAR     70  58  65 W6        30.10S
LAMAR          CLEAR     71  57  61 W7        30.03S
SPRINGFIELD      N/A     70  55  59 S18       30.12F
$$


USA.gov is the U.S. government's official web portal to all federal, state and local government web resources and services.